| time (UTC) | temp F | wind direction | speed knots | gust knots | rain 1hr in | rain 24hr in | rain mn in | humidity % | barometer mb |
| 20260509073421 | 58 | 56 | 0.0 | 0.0 | 0.00 | 0.00 | 0.00 | 98 | 1012.8 |
| 20260509072917 | 58 | 56 | 0.0 | 0.0 | 0.00 | 0.00 | 0.00 | 98 | 1013.0 |
| 20260509072414 | 58 | 72 | 0.0 | 0.0 | 0.00 | 0.00 | 0.00 | 98 | 1012.7 |
| 20260509071911 | 58 | 72 | 0.0 | 0.0 | 0.00 | 0.00 | 0.00 | 98 | 1012.8 |
| 20260509071408 | 59 | 74 | 0.0 | 0.0 | 0.00 | 0.00 | 0.00 | 98 | 1013.0 |
| 20260509070906 | 59 | 135 | 0.0 | 0.0 | 0.00 | 0.00 | 0.00 | 98 | 1013.0 |
| 20260509070402 | 59 | 135 | 0.0 | 0.0 | 0.00 | 0.00 | 0.00 | 98 | 1012.7 |
| 20260509065857 | 59 | 135 | 0.0 | 0.0 | 0.00 | 0.00 | 0.00 | 98 | 1012.8 |
| 20260509065354 | 59 | 136 | 0.0 | 0.0 | 0.00 | 0.00 | 0.00 | 98 | 1012.8 |
| 20260509064850 | 59 | 136 | 0.0 | 0.0 | 0.00 | 0.00 | 0.00 | 98 | 1012.6 |
| 20260509064348 | 60 | 133 | 0.0 | 0.0 | 0.00 | 0.00 | 0.00 | 98 | 1012.7 |
| 20260509063845 | 60 | 47 | 0.0 | 0.0 | 0.00 | 0.00 | 0.00 | 97 | 1012.5 |
| 20260509063341 | 60 | 48 | 0.0 | 0.0 | 0.00 | 0.00 | 0.00 | 98 | 1012.8 |
| 20260509062839 | 60 | 327 | 0.0 | 0.0 | 0.00 | 0.00 | 0.00 | 98 | 1012.7 |
| 20260509062336 | 60 | 212 | 0.0 | 0.0 | 0.00 | 0.00 | 0.00 | 98 | 1013.0 |
| 20260509061833 | 60 | 176 | 0.0 | 0.0 | 0.00 | 0.00 | 0.00 | 97 | 1013.0 |
| 20260509061331 | 60 | 3 | 0.0 | 0.0 | 0.00 | 0.00 | 0.00 | 97 | 1012.8 |
| 20260509060828 | 60 | 3 | 0.0 | 0.0 | 0.00 | 0.00 | 0.00 | 97 | 1013.0 |
| 20260509060325 | 60 | 3 | 0.0 | 0.0 | 0.00 | 0.00 | 0.00 | 97 | 1013.1 |
| 20260509055820 | 60 | 5 | 0.0 | 0.0 | 0.00 | 0.00 | 0.00 | 97 | 1013.0 |
| 20260509055315 | 60 | 40 | 0.0 | 0.0 | 0.00 | 0.00 | 0.00 | 97 | 1013.0 |
| 20260509054813 | 60 | 91 | 0.0 | 0.0 | 0.00 | 0.00 | 0.00 | 97 | 1013.0 |
| 20260509054309 | 60 | 296 | 0.0 | 0.0 | 0.00 | 0.00 | 0.00 | 96 | 1013.0 |
| 20260509053808 | 61 | 296 | 0.0 | 0.0 | 0.00 | 0.00 | 0.00 | 96 | 1013.0 |
| 20260509053304 | 61 | 295 | 0.0 | 0.0 | 0.00 | 0.00 | 0.00 | 96 | 1012.7 |
| 20260509052803 | 61 | 297 | 0.0 | 0.0 | 0.00 | 0.00 | 0.00 | 95 | 1012.6 |
| 20260509052300 | 61 | 267 | 0.0 | 0.0 | 0.00 | 0.00 | 0.00 | 95 | 1012.8 |
| 20260509051758 | 61 | 159 | 0.0 | 0.0 | 0.00 | 0.00 | 0.00 | 95 | 1012.7 |
| 20260509051256 | 62 | 215 | 0.0 | 0.9 | 0.00 | 0.00 | 0.00 | 95 | 1012.6 |
| 20260509050752 | 62 | 320 | 0.0 | 0.0 | 0.00 | 0.00 | 0.00 | 95 | 1012.6 |
| 20260509050248 | 62 | 272 | 0.0 | 0.0 | 0.00 | 0.00 | 0.00 | 95 | 1012.8 |
| 20260509045746 | 62 | 292 | 0.0 | 0.0 | 0.00 | 0.30 | 0.30 | 96 | 1012.8 |
| 20260509045242 | 62 | 148 | 0.0 | 0.0 | 0.00 | 0.30 | 0.30 | 96 | 1013.0 |
| 20260509044740 | 62 | 148 | 0.0 | 0.9 | 0.00 | 0.30 | 0.30 | 97 | 1012.8 |
| 20260509044237 | 62 | 148 | 0.9 | 1.7 | 0.00 | 0.30 | 0.30 | 97 | 1013.0 |
| 20260509043734 | 62 | 148 | 0.0 | 0.0 | 0.00 | 0.30 | 0.30 | 97 | 1013.0 |
| 20260509043230 | 62 | 148 | 0.0 | 0.0 | 0.00 | 0.30 | 0.30 | 97 | 1013.0 |
| 20260509042726 | 62 | 4 | 0.0 | 2.6 | 0.00 | 0.30 | 0.30 | 98 | 1013.1 |
| 20260509042222 | 62 | 105 | 0.0 | 1.7 | 0.00 | 0.30 | 0.30 | 98 | 1013.1 |
| 20260509041719 | 62 | 105 | 0.0 | 0.9 | 0.00 | 0.30 | 0.30 | 98 | 1012.7 |
| 20260509041216 | 62 | 105 | 0.0 | 0.0 | 0.00 | 0.30 | 0.30 | 98 | 1012.7 |
| 20260509040715 | 62 | 105 | 0.0 | 0.0 | 0.00 | 0.30 | 0.30 | 98 | 1012.7 |
| 20260509040211 | 62 | 105 | 0.0 | 0.0 | 0.00 | 0.30 | 0.30 | 98 | 1012.5 |
| 20260509035708 | 62 | 105 | 0.0 | 0.0 | 0.00 | 0.30 | 0.30 | 98 | 1012.4 |
| 20260509035204 | 62 | 105 | 0.0 | 0.0 | 0.00 | 0.30 | 0.30 | 98 | 1012.6 |
| 20260509034702 | 62 | 105 | 0.0 | 0.9 | 0.00 | 0.30 | 0.30 | 98 | 1012.6 |
| 20260509034159 | 62 | 105 | 0.0 | 0.9 | 0.00 | 0.30 | 0.30 | 98 | 1012.3 |
| 20260509033656 | 62 | 105 | 0.0 | 0.0 | 0.00 | 0.30 | 0.30 | 98 | 1012.2 |
| 20260509033153 | 62 | 105 | 0.0 | 0.0 | 0.00 | 0.30 | 0.30 | 98 | 1011.8 |
| 20260509032650 | 62 | 105 | 0.0 | 0.0 | 0.00 | 0.30 | 0.30 | 98 | 1011.9 |
| 20260509032147 | 62 | 105 | 0.0 | 0.0 | 0.00 | 0.30 | 0.30 | 98 | 1011.8 |
| 20260509031645 | 62 | 105 | 0.0 | 0.0 | 0.00 | 0.30 | 0.30 | 98 | 1011.7 |
| 20260509031142 | 62 | 105 | 0.0 | 0.0 | 0.00 | 0.30 | 0.30 | 98 | 1011.6 |
| 20260509030640 | 63 | 105 | 0.0 | 0.0 | 0.00 | 0.30 | 0.30 | 98 | 1011.4 |
| 20260509030137 | 63 | 105 | 0.0 | 0.9 | 0.00 | 0.30 | 0.30 | 98 | 1011.1 |
| 20260509025633 | 63 | 105 | 0.0 | 0.0 | 0.00 | 0.30 | 0.30 | 98 | 1011.1 |
| 20260509025129 | 63 | 105 | 0.0 | 0.0 | 0.00 | 0.30 | 0.30 | 98 | 1011.0 |
| 20260509024625 | 63 | 104 | 0.0 | 0.9 | 0.00 | 0.30 | 0.30 | 98 | 1011.1 |
| 20260509024121 | 63 | 347 | 0.0 | 0.9 | 0.00 | 0.30 | 0.30 | 98 | 1011.0 |
| 20260509023619 | 63 | 94 | 0.0 | 0.0 | 0.00 | 0.30 | 0.30 | 98 | 1011.0 |
| 20260509023116 | 64 | 94 | 0.0 | 0.0 | 0.00 | 0.30 | 0.30 | 98 | 1011.1 |
| 20260509022612 | 63 | 94 | 0.0 | 0.0 | 0.00 | 0.30 | 0.30 | 97 | 1011.0 |
| 20260509022110 | 64 | 94 | 0.0 | 0.0 | 0.00 | 0.30 | 0.30 | 97 | 1011.0 |
| 20260509021607 | 64 | 94 | 0.0 | 0.0 | 0.00 | 0.30 | 0.30 | 97 | 1010.6 |
| 20260509021104 | 64 | 94 | 0.0 | 0.0 | 0.00 | 0.30 | 0.30 | 97 | 1010.8 |
| 20260509020602 | 64 | 94 | 0.9 | 0.9 | 0.00 | 0.30 | 0.30 | 97 | 1010.6 |
| 20260509020058 | 63 | 94 | 0.0 | 0.0 | 0.00 | 0.30 | 0.30 | 96 | 1010.3 |
| 20260509015558 | 64 | 94 | 0.0 | 0.0 | 0.00 | 0.30 | 0.30 | 96 | 1010.3 |
| 20260509015055 | 64 | 94 | 0.0 | 0.0 | 0.00 | 0.30 | 0.30 | 95 | 1010.1 |
| 20260509014551 | 64 | 94 | 0.0 | 0.0 | 0.00 | 0.30 | 0.30 | 95 | 1010.0 |
| 20260509014047 | 64 | 94 | 0.0 | 0.0 | 0.00 | 0.30 | 0.30 | 95 | 1009.6 |
| 20260509013544 | 65 | 94 | 0.0 | 0.0 | 0.00 | 0.30 | 0.30 | 94 | 1009.7 |
| 20260509013040 | 65 | 94 | 0.0 | 0.0 | 0.00 | 0.30 | 0.30 | 93 | 1009.5 |
| 20260509012537 | 66 | 93 | 0.0 | 0.0 | 0.00 | 0.30 | 0.30 | 93 | 1009.5 |
| 20260509012034 | 66 | 93 | 0.0 | 0.0 | 0.00 | 0.30 | 0.30 | 92 | 1009.6 |
| 20260509011532 | 66 | 214 | 0.0 | 0.0 | 0.00 | 0.30 | 0.30 | 91 | 1009.7 |
| 20260509011029 | 67 | 211 | 0.0 | 0.9 | 0.00 | 0.30 | 0.30 | 90 | 1009.6 |
| 20260509010526 | 67 | 99 | 0.0 | 1.7 | 0.00 | 0.30 | 0.30 | 90 | 1009.6 |
| 20260509010023 | 67 | 89 | 0.0 | 0.9 | 0.00 | 0.30 | 0.30 | 90 | 1009.7 |
| 20260509005521 | 67 | 319 | 0.9 | 1.7 | 0.00 | 0.30 | 0.30 | 91 | 1009.7 |
| 20260509005021 | 67 | 175 | 0.0 | 0.9 | 0.00 | 0.30 | 0.30 | 91 | 1009.4 |
| 20260509004518 | 68 | 176 | 0.0 | 1.7 | 0.00 | 0.30 | 0.30 | 91 | 1009.3 |
| 20260509004015 | 67 | 177 | 0.0 | 0.9 | 0.00 | 0.30 | 0.30 | 91 | 1009.5 |
| 20260509003513 | 68 | 166 | 0.0 | 0.9 | 0.00 | 0.30 | 0.30 | 93 | 1009.0 |
| 20260509003010 | 68 | 166 | 0.0 | 0.9 | 0.00 | 0.30 | 0.30 | 93 | 1008.9 |
| 20260509002508 | 68 | 166 | 0.0 | 0.9 | 0.00 | 0.30 | 0.30 | 91 | 1008.5 |
| 20260509002004 | 68 | 166 | 0.0 | 0.9 | 0.00 | 0.30 | 0.30 | 91 | 1008.7 |
| 20260509001501 | 67 | 256 | 0.9 | 1.7 | 0.00 | 0.30 | 0.30 | 95 | 1008.3 |
| 20260509000958 | 67 | 310 | 0.0 | 0.9 | 0.00 | 0.30 | 0.30 | 96 | 1008.3 |
| 20260509000456 | 67 | 22 | 0.0 | 0.9 | 0.00 | 0.30 | 0.30 | 98 | 1008.3 |
| 20260508235951 | 66 | 42 | 0.0 | 2.6 | 0.00 | 0.30 | 0.30 | 98 | 1008.3 |
| 20260508235450 | 67 | 271 | 0.0 | 0.9 | 0.00 | 0.30 | 0.30 | 99 | 1008.3 |
| 20260508234946 | 68 | 36 | 0.0 | 0.0 | 0.00 | 0.30 | 0.30 | 99 | 1008.1 |
| 20260508234443 | 68 | 203 | 0.0 | 0.0 | 0.00 | 0.30 | 0.30 | 99 | 1008.1 |
| 20260508233940 | 68 | 144 | 0.0 | 0.0 | 0.00 | 0.30 | 0.30 | 99 | 1008.1 |
| 20260508233440 | 67 | 279 | 0.0 | 0.0 | 0.00 | 0.30 | 0.30 | 99 | 1007.7 |
| 20260508232936 | 67 | 37 | 0.0 | 0.0 | 0.00 | 0.30 | 0.30 | 98 | 1007.7 |
| 20260508232433 | 67 | 34 | 0.0 | 0.9 | 0.00 | 0.30 | 0.30 | 98 | 1007.6 |
| 20260508231930 | 66 | 270 | 0.0 | 0.9 | 0.00 | 0.30 | 0.30 | 97 | 1007.9 |
| 20260508231428 | 66 | 44 | 0.9 | 1.7 | 0.00 | 0.30 | 0.30 | 96 | 1007.8 |
| 20260508230924 | 66 | 59 | 0.9 | 1.7 | 0.12 | 0.30 | 0.30 | 95 | 1008.1 |
| 20260508230421 | 66 | 19 | 0.0 | 5.2 | 1.28 | 0.30 | 0.30 | 93 | 1008.5 |
| 20260508225918 | 67 | 82 | 0.0 | 0.9 | 1.70 | 0.28 | 0.28 | 91 | 1008.7 |
| 20260508225415 | 73 | 340 | 1.7 | 7.0 | 0.54 | 0.09 | 0.09 | 81 | 1009.9 |
| 20260508224913 | 81 | 285 | 0.0 | 0.9 | 0.00 | 0.00 | 0.00 | 52 | 1008.7 |
| 20260508224410 | 81 | 285 | 0.0 | 0.9 | 0.00 | 0.00 | 0.00 | 48 | 1008.0 |
| 20260508223907 | 81 | 337 | 0.0 | 1.7 | 0.00 | 0.00 | 0.00 | 48 | 1007.7 |
| 20260508223405 | 82 | 242 | 0.0 | 0.9 | 0.00 | 0.00 | 0.00 | 47 | 1007.6 |
| 20260508222902 | 82 | 130 | 0.9 | 2.6 | 0.00 | 0.00 | 0.00 | 47 | 1007.6 |
| 20260508222359 | 82 | 223 | 0.9 | 1.7 | 0.00 | 0.00 | 0.00 | 47 | 1007.5 |
| 20260508221856 | 82 | 88 | 1.7 | 2.6 | 0.00 | 0.00 | 0.00 | 47 | 1007.6 |
| 20260508221351 | 82 | 244 | 0.9 | 2.6 | 0.00 | 0.00 | 0.00 | 47 | 1007.4 |
| 20260508220848 | 83 | 198 | 0.9 | 6.1 | 0.00 | 0.00 | 0.00 | 47 | 1007.5 |
| 20260508220344 | 83 | 234 | 2.6 | 3.5 | 0.00 | 0.00 | 0.00 | 46 | 1007.4 |
| 20260508215841 | 84 | 150 | 0.9 | 7.8 | 0.00 | 0.00 | 0.00 | 46 | 1007.5 |
| 20260508215338 | 85 | 242 | 2.6 | 6.1 | 0.00 | 0.00 | 0.00 | 45 | 1007.6 |
| 20260508214834 | 85 | 195 | 1.7 | 9.6 | 0.00 | 0.00 | 0.00 | 45 | 1007.7 |
| 20260508214332 | 86 | 332 | 3.5 | 5.2 | 0.00 | 0.00 | 0.00 | 44 | 1008.1 |
| 20260508213828 | 87 | 218 | 5.2 | 7.8 | 0.00 | 0.00 | 0.00 | 43 | 1008.0 |
| 20260508213325 | 86 | 243 | 2.6 | 6.1 | 0.00 | 0.00 | 0.00 | 44 | 1008.1 |
| 20260508212821 | 86 | 296 | 3.5 | 6.1 | 0.00 | 0.00 | 0.00 | 44 | 1008.3 |
| 20260508212318 | 87 | 237 | 1.7 | 2.6 | 0.00 | 0.00 | 0.00 | 44 | 1008.3 |
| 20260508211813 | 87 | 246 | 0.9 | 2.6 | 0.00 | 0.00 | 0.00 | 44 | 1008.7 |
| 20260508211309 | 85 | 222 | 1.7 | 3.5 | 0.00 | 0.00 | 0.00 | 46 | 1008.8 |
| 20260508210807 | 85 | 311 | 1.7 | 3.5 | 0.00 | 0.00 | 0.00 | 47 | 1008.8 |
| 20260508210304 | 86 | 131 | 2.6 | 6.1 | 0.00 | 0.00 | 0.00 | 47 | 1009.0 |
| 20260508205801 | 86 | 240 | 3.5 | 6.1 | 0.00 | 0.00 | 0.00 | 45 | 1009.1 |
| 20260508205257 | 85 | 230 | 1.7 | 6.1 | 0.00 | 0.00 | 0.00 | 47 | 1009.2 |
| 20260508204753 | 86 | 170 | 1.7 | 3.5 | 0.00 | 0.00 | 0.00 | 48 | 1009.4 |
| 20260508204250 | 86 | 134 | 0.9 | 3.5 | 0.00 | 0.00 | 0.00 | 47 | 1009.4 |
| 20260508203746 | 83 | 200 | 0.9 | 3.5 | 0.00 | 0.00 | 0.00 | 49 | 1009.3 |
| 20260508203242 | 85 | 135 | 3.5 | 8.7 | 0.00 | 0.00 | 0.00 | 47 | 1009.5 |
| 20260508202738 | 85 | 26 | 1.7 | 2.6 | 0.00 | 0.00 | 0.00 | 48 | 1009.5 |
| 20260508202236 | 84 | 218 | 0.9 | 2.6 | 0.00 | 0.00 | 0.00 | 49 | 1009.7 |
| 20260508201733 | 84 | 48 | 0.9 | 2.6 | 0.00 | 0.00 | 0.00 | 48 | 1009.6 |
| 20260508201229 | 84 | 239 | 1.7 | 5.2 | 0.00 | 0.00 | 0.00 | 47 | 1009.9 |
| 20260508200726 | 84 | 9 | 0.0 | 5.2 | 0.00 | 0.00 | 0.00 | 49 | 1009.9 |
| 20260508200222 | 85 | 275 | 0.9 | 3.5 | 0.00 | 0.00 | 0.00 | 46 | 1010.1 |
| 20260508195719 | 84 | 178 | 0.9 | 1.7 | 0.00 | 0.00 | 0.00 | 48 | 1010.1 |
| 20260508195215 | 84 | 46 | 0.9 | 2.6 | 0.00 | 0.00 | 0.00 | 49 | 1010.0 |
| 20260508194712 | 83 | 213 | 2.6 | 3.5 | 0.00 | 0.00 | 0.00 | 49 | 1010.1 |
| 20260508194209 | 83 | 191 | 0.9 | 5.2 | 0.00 | 0.00 | 0.00 | 49 | 1010.2 |
| 20260508193706 | 83 | 291 | 6.1 | 7.8 | 0.00 | 0.00 | 0.00 | 49 | 1010.4 |
| 20260508193202 | 83 | 343 | 3.5 | 7.0 | 0.00 | 0.00 | 0.00 | 49 | 1010.4 |
| 20260508192659 | 83 | 257 | 1.7 | 3.5 | 0.00 | 0.00 | 0.00 | 49 | 1010.5 |
| 20260508192156 | 83 | 303 | 3.5 | 6.1 | 0.00 | 0.00 | 0.00 | 49 | 1010.4 |
| 20260508191653 | 83 | 257 | 2.6 | 6.1 | 0.00 | 0.00 | 0.00 | 48 | 1010.3 |
| 20260508191149 | 83 | 251 | 1.7 | 3.5 | 0.00 | 0.00 | 0.00 | 50 | 1010.4 |
| 20260508190647 | 82 | 310 | 0.9 | 2.6 | 0.00 | 0.00 | 0.00 | 49 | 1010.4 |
| 20260508190143 | 82 | 149 | 3.5 | 6.1 | 0.00 | 0.00 | 0.00 | 50 | 1010.5 |
| 20260508185640 | 82 | 151 | 3.5 | 7.0 | 0.00 | 0.00 | 0.00 | 49 | 1010.6 |
| 20260508185138 | 81 | 289 | 1.7 | 7.0 | 0.00 | 0.00 | 0.00 | 51 | 1010.5 |
| 20260508184635 | 81 | 243 | 3.5 | 6.1 | 0.00 | 0.00 | 0.00 | 51 | 1010.7 |
| 20260508184132 | 80 | 183 | 2.6 | 3.5 | 0.00 | 0.00 | 0.00 | 51 | 1010.7 |
| 20260508183629 | 80 | 225 | 1.7 | 7.8 | 0.00 | 0.00 | 0.00 | 51 | 1010.8 |
| 20260508183124 | 80 | 209 | 1.7 | 7.0 | 0.00 | 0.00 | 0.00 | 52 | 1010.7 |
| 20260508182621 | 80 | 303 | 1.7 | 5.2 | 0.00 | 0.00 | 0.00 | 55 | 1011.0 |
| 20260508182118 | 79 | 256 | 3.5 | 7.8 | 0.00 | 0.00 | 0.00 | 53 | 1010.9 |
| 20260508181613 | 79 | 272 | 5.2 | 7.0 | 0.00 | 0.00 | 0.00 | 52 | 1010.9 |
| 20260508181111 | 79 | 237 | 2.6 | 6.1 | 0.00 | 0.00 | 0.00 | 53 | 1011.0 |
| 20260508180608 | 79 | 208 | 2.6 | 3.5 | 0.00 | 0.00 | 0.00 | 54 | 1011.2 |
| 20260508180104 | 79 | 225 | 2.6 | 7.0 | 0.00 | 0.00 | 0.00 | 52 | 1011.5 |
| 20260508175601 | 80 | 250 | 1.7 | 6.1 | 0.00 | 0.00 | 0.00 | 51 | 1011.4 |
| 20260508175058 | 79 | 224 | 3.5 | 6.1 | 0.00 | 0.00 | 0.00 | 51 | 1011.5 |
| 20260508174555 | 78 | 204 | 2.6 | 6.1 | 0.00 | 0.00 | 0.00 | 52 | 1011.6 |
| 20260508174052 | 78 | 107 | 0.9 | 7.8 | 0.00 | 0.00 | 0.00 | 52 | 1011.6 |
| 20260508173549 | 78 | 322 | 3.5 | 5.2 | 0.00 | 0.00 | 0.00 | 52 | 1011.6 |
| 20260508173045 | 78 | 210 | 5.2 | 7.8 | 0.00 | 0.00 | 0.00 | 51 | 1011.6 |
| 20260508172542 | 78 | 263 | 2.6 | 5.2 | 0.00 | 0.00 | 0.00 | 50 | 1011.6 |
| 20260508172038 | 77 | 224 | 1.7 | 3.5 | 0.00 | 0.00 | 0.00 | 51 | 1011.7 |
| 20260508171535 | 76 | 184 | 3.5 | 7.0 | 0.00 | 0.00 | 0.00 | 51 | 1012.0 |
| 20260508171032 | 75 | 243 | 5.2 | 6.1 | 0.00 | 0.00 | 0.00 | 51 | 1012.0 |
| 20260508170529 | 76 | 38 | 4.3 | 6.1 | 0.00 | 0.00 | 0.00 | 51 | 1012.2 |
| 20260508170027 | 76 | 123 | 3.5 | 5.2 | 0.00 | 0.00 | 0.00 | 50 | 1012.4 |
| 20260508165524 | 76 | 254 | 3.5 | 7.8 | 0.00 | 0.00 | 0.00 | 50 | 1012.4 |
| 20260508165020 | 75 | 295 | 2.6 | 6.1 | 0.00 | 0.00 | 0.00 | 52 | 1012.5 |
| 20260508164517 | 76 | 114 | 0.9 | 3.5 | 0.00 | 0.00 | 0.00 | 51 | 1012.6 |
| 20260508164014 | 76 | 223 | 2.6 | 5.2 | 0.00 | 0.00 | 0.00 | 50 | 1012.7 |
| 20260508163511 | 75 | 162 | 0.9 | 7.8 | 0.00 | 0.00 | 0.00 | 51 | 1013.0 |
| 20260508163007 | 74 | 275 | 4.3 | 5.2 | 0.00 | 0.00 | 0.00 | 51 | 1013.1 |
| 20260508162505 | 73 | 19 | 1.7 | 3.5 | 0.00 | 0.00 | 0.00 | 54 | 1012.8 |
| 20260508162002 | 74 | 126 | 2.6 | 6.1 | 0.00 | 0.00 | 0.00 | 53 | 1013.2 |
| 20260508161458 | 74 | 279 | 1.7 | 7.0 | 0.00 | 0.00 | 0.00 | 51 | 1013.2 |
| 20260508160955 | 74 | 259 | 6.1 | 8.7 | 0.00 | 0.00 | 0.00 | 49 | 1013.3 |
| 20260508160454 | 73 | 231 | 3.5 | 11.3 | 0.00 | 0.00 | 0.00 | 50 | 1013.4 |
| 20260508155950 | 73 | 244 | 2.6 | 12.2 | 0.00 | 0.00 | 0.00 | 51 | 1013.4 |
| 20260508155447 | 74 | 156 | 3.5 | 8.7 | 0.00 | 0.00 | 0.00 | 49 | 1013.4 |
| 20260508154944 | 74 | 258 | 5.2 | 8.7 | 0.00 | 0.00 | 0.00 | 48 | 1013.5 |
| 20260508154442 | 73 | 257 | 2.6 | 7.0 | 0.00 | 0.00 | 0.00 | 49 | 1013.6 |
| 20260508153938 | 73 | 146 | 1.7 | 8.7 | 0.00 | 0.00 | 0.00 | 51 | 1013.4 |
| 20260508153435 | 73 | 291 | 3.5 | 13.9 | 0.00 | 0.00 | 0.00 | 51 | 1013.5 |
| 20260508152931 | 72 | 321 | 2.6 | 5.2 | 0.00 | 0.00 | 0.00 | 52 | 1013.8 |
| 20260508152428 | 72 | 234 | 3.5 | 9.6 | 0.00 | 0.00 | 0.00 | 51 | 1013.8 |
| 20260508151925 | 71 | 212 | 3.5 | 11.3 | 0.00 | 0.00 | 0.00 | 53 | 1013.9 |
| 20260508151422 | 72 | 179 | 2.6 | 7.0 | 0.00 | 0.00 | 0.00 | 52 | 1013.9 |
| 20260508150918 | 71 | 341 | 3.5 | 6.1 | 0.00 | 0.00 | 0.00 | 52 | 1014.1 |
| 20260508150415 | 71 | 221 | 4.3 | 11.3 | 0.00 | 0.00 | 0.00 | 54 | 1014.0 |
| 20260508145911 | 71 | 95 | 1.7 | 3.5 | 0.00 | 0.00 | 0.00 | 55 | 1014.1 |
| 20260508145407 | 71 | 258 | 1.7 | 3.5 | 0.00 | 0.00 | 0.00 | 55 | 1014.2 |
| 20260508144904 | 71 | 226 | 2.6 | 5.2 | 0.00 | 0.00 | 0.00 | 55 | 1014.2 |
| 20260508144402 | 70 | 21 | 2.6 | 3.5 | 0.00 | 0.00 | 0.00 | 57 | 1014.1 |
| 20260508143859 | 70 | 54 | 0.9 | 7.0 | 0.00 | 0.00 | 0.00 | 57 | 1014.1 |
| 20260508143356 | 69 | 222 | 2.6 | 6.1 | 0.00 | 0.00 | 0.00 | 57 | 1014.3 |
| 20260508142853 | 69 | 188 | 1.7 | 7.0 | 0.00 | 0.00 | 0.00 | 57 | 1014.2 |
| 20260508142350 | 68 | 308 | 1.7 | 6.1 | 0.00 | 0.00 | 0.00 | 58 | 1014.2 |
| 20260508141846 | 68 | 168 | 3.5 | 6.1 | 0.00 | 0.00 | 0.00 | 58 | 1014.1 |
| 20260508141343 | 68 | 306 | 1.7 | 5.2 | 0.00 | 0.00 | 0.00 | 58 | 1014.1 |
| 20260508140841 | 68 | 214 | 2.6 | 5.2 | 0.00 | 0.00 | 0.00 | 59 | 1014.3 |
| 20260508140338 | 67 | 286 | 2.6 | 7.0 | 0.00 | 0.00 | 0.00 | 59 | 1014.2 |
| 20260508135833 | 67 | 243 | 1.7 | 2.6 | 0.00 | 0.00 | 0.00 | 60 | 1014.3 |
| 20260508135330 | 66 | 128 | 2.6 | 7.0 | 0.00 | 0.00 | 0.00 | 60 | 1014.2 |
| 20260508134826 | 66 | 104 | 0.9 | 5.2 | 0.00 | 0.00 | 0.00 | 61 | 1014.3 |
| 20260508134323 | 65 | 224 | 4.3 | 7.0 | 0.00 | 0.00 | 0.00 | 63 | 1014.5 |
| 20260508133819 | 65 | 225 | 1.7 | 7.0 | 0.00 | 0.00 | 0.00 | 64 | 1014.5 |
| 20260508133318 | 65 | 149 | 0.9 | 5.2 | 0.00 | 0.00 | 0.00 | 65 | 1014.5 |
| 20260508132814 | 65 | 192 | 1.7 | 5.2 | 0.00 | 0.00 | 0.00 | 65 | 1014.5 |
| 20260508132312 | 64 | 202 | 0.9 | 7.0 | 0.00 | 0.00 | 0.00 | 65 | 1014.4 |
| 20260508131808 | 64 | 235 | 1.7 | 3.5 | 0.00 | 0.00 | 0.00 | 65 | 1014.7 |
| 20260508131304 | 63 | 210 | 1.7 | 5.2 | 0.00 | 0.00 | 0.00 | 66 | 1014.5 |
| 20260508130800 | 63 | 185 | 3.5 | 7.8 | 0.00 | 0.00 | 0.00 | 67 | 1014.6 |
| 20260508130258 | 62 | 274 | 2.6 | 2.6 | 0.00 | 0.00 | 0.00 | 69 | 1014.4 |
| 20260508125753 | 61 | 295 | 1.7 | 5.2 | 0.00 | 0.00 | 0.00 | 71 | 1014.5 |
| 20260508125249 | 61 | 222 | 0.0 | 1.7 | 0.00 | 0.00 | 0.00 | 71 | 1014.6 |
| 20260508124748 | 61 | 251 | 1.7 | 2.6 | 0.00 | 0.00 | 0.00 | 72 | 1014.6 |
| 20260508124244 | 60 | 347 | 1.7 | 2.6 | 0.00 | 0.00 | 0.00 | 73 | 1014.4 |
| 20260508123743 | 60 | 238 | 1.7 | 5.2 | 0.00 | 0.00 | 0.00 | 73 | 1014.5 |
| 20260508123240 | 60 | 226 | 2.6 | 3.5 | 0.00 | 0.00 | 0.00 | 74 | 1014.4 |
| 20260508122737 | 60 | 259 | 0.9 | 1.7 | 0.00 | 0.00 | 0.00 | 74 | 1014.4 |
| 20260508122234 | 59 | 253 | 0.9 | 1.7 | 0.00 | 0.00 | 0.00 | 75 | 1014.3 |
| 20260508121731 | 59 | 48 | 0.9 | 1.7 | 0.00 | 0.00 | 0.00 | 75 | 1014.4 |
| 20260508121229 | 59 | 349 | 0.9 | 3.5 | 0.00 | 0.00 | 0.00 | 75 | 1014.3 |
| 20260508120726 | 59 | 249 | 0.9 | 1.7 | 0.00 | 0.00 | 0.00 | 75 | 1014.3 |
| 20260508120225 | 59 | 251 | 2.6 | 3.5 | 0.00 | 0.00 | 0.00 | 75 | 1014.4 |
| 20260508115721 | 58 | 179 | 0.9 | 3.5 | 0.00 | 0.00 | 0.00 | 76 | 1014.4 |
| 20260508115219 | 58 | 284 | 1.7 | 2.6 | 0.00 | 0.00 | 0.00 | 76 | 1014.1 |
| 20260508114715 | 58 | 207 | 1.7 | 1.7 | 0.00 | 0.00 | 0.00 | 76 | 1014.3 |
| 20260508114212 | 58 | 200 | 0.9 | 1.7 | 0.00 | 0.00 | 0.00 | 76 | 1014.2 |
| 20260508113709 | 59 | 275 | 0.0 | 1.7 | 0.00 | 0.00 | 0.00 | 76 | 1014.3 |
| 20260508113207 | 59 | 35 | 0.9 | 2.6 | 0.00 | 0.00 | 0.00 | 76 | 1014.3 |
| 20260508112703 | 59 | 344 | 0.0 | 2.6 | 0.00 | 0.00 | 0.00 | 76 | 1014.2 |
| 20260508112200 | 59 | 72 | 0.9 | 6.1 | 0.00 | 0.00 | 0.00 | 75 | 1014.4 |
| 20260508111657 | 59 | 235 | 2.6 | 3.5 | 0.00 | 0.00 | 0.00 | 75 | 1014.1 |
| 20260508111154 | 59 | 240 | 1.7 | 3.5 | 0.00 | 0.00 | 0.00 | 75 | 1014.3 |
| 20260508110652 | 59 | 3 | 1.7 | 1.7 | 0.00 | 0.00 | 0.00 | 75 | 1014.2 |
| 20260508110148 | 59 | 227 | 0.9 | 2.6 | 0.00 | 0.00 | 0.00 | 74 | 1014.2 |
| 20260508105643 | 59 | 237 | 0.9 | 3.5 | 0.00 | 0.00 | 0.00 | 74 | 1014.2 |
| 20260508105140 | 59 | 266 | 2.6 | 3.5 | 0.00 | 0.00 | 0.00 | 74 | 1014.0 |
| 20260508104638 | 59 | 270 | 0.0 | 1.7 | 0.00 | 0.00 | 0.00 | 74 | 1014.0 |
| 20260508104134 | 59 | 238 | 0.0 | 1.7 | 0.00 | 0.00 | 0.00 | 74 | 1014.2 |
| 20260508103631 | 60 | 255 | 0.9 | 2.6 | 0.00 | 0.00 | 0.00 | 74 | 1013.9 |
| 20260508103129 | 60 | 100 | 0.9 | 2.6 | 0.00 | 0.00 | 0.00 | 73 | 1014.2 |
| 20260508102626 | 60 | 345 | 0.9 | 1.7 | 0.00 | 0.00 | 0.00 | 74 | 1014.0 |
| 20260508102124 | 60 | 70 | 0.9 | 3.5 | 0.00 | 0.00 | 0.00 | 73 | 1013.8 |
| 20260508101621 | 60 | 151 | 1.7 | 2.6 | 0.00 | 0.00 | 0.00 | 73 | 1013.9 |
| 20260508101118 | 60 | 248 | 0.9 | 2.6 | 0.00 | 0.00 | 0.00 | 72 | 1013.8 |
| 20260508100616 | 60 | 261 | 0.9 | 1.7 | 0.00 | 0.00 | 0.00 | 73 | 1013.8 |
| 20260508100114 | 60 | 275 | 0.9 | 1.7 | 0.00 | 0.00 | 0.00 | 73 | 1013.7 |
| 20260508095610 | 60 | 332 | 0.0 | 5.2 | 0.00 | 0.00 | 0.00 | 72 | 1013.9 |
| 20260508095107 | 60 | 298 | 0.9 | 0.9 | 0.00 | 0.00 | 0.00 | 72 | 1013.8 |
| 20260508094604 | 60 | 86 | 0.0 | 1.7 | 0.00 | 0.00 | 0.00 | 72 | 1013.7 |
| 20260508094100 | 60 | 223 | 2.6 | 2.6 | 0.00 | 0.00 | 0.00 | 72 | 1014.0 |
| 20260508093558 | 60 | 304 | 0.0 | 2.6 | 0.00 | 0.00 | 0.00 | 72 | 1013.8 |
| 20260508093056 | 60 | 198 | 2.6 | 3.5 | 0.00 | 0.00 | 0.00 | 73 | 1013.8 |
| 20260508092552 | 60 | 94 | 0.9 | 2.6 | 0.00 | 0.00 | 0.00 | 73 | 1013.9 |
| 20260508092051 | 60 | 11 | 0.0 | 0.9 | 0.00 | 0.00 | 0.00 | 73 | 1013.7 |
| 20260508091548 | 60 | 258 | 1.7 | 2.6 | 0.00 | 0.00 | 0.00 | 73 | 1013.7 |
| 20260508091044 | 60 | 98 | 0.9 | 1.7 | 0.00 | 0.00 | 0.00 | 72 | 1013.7 |
| 20260508090543 | 60 | 202 | 0.0 | 1.7 | 0.00 | 0.00 | 0.00 | 72 | 1013.8 |
| 20260508090039 | 60 | 34 | 0.0 | 0.9 | 0.00 | 0.00 | 0.00 | 72 | 1013.8 |
| 20260508085535 | 61 | 247 | 0.0 | 0.9 | 0.00 | 0.00 | 0.00 | 71 | 1013.9 |
| 20260508085033 | 61 | 215 | 0.0 | 0.9 | 0.00 | 0.00 | 0.00 | 70 | 1013.9 |
| 20260508084530 | 61 | 265 | 1.7 | 6.1 | 0.00 | 0.00 | 0.00 | 70 | 1013.7 |
| 20260508084027 | 61 | 258 | 0.9 | 3.5 | 0.00 | 0.00 | 0.00 | 70 | 1013.8 |
| 20260508083524 | 61 | 233 | 0.9 | 3.5 | 0.00 | 0.00 | 0.00 | 70 | 1013.9 |
| 20260508083020 | 61 | 253 | 1.7 | 3.5 | 0.00 | 0.00 | 0.00 | 69 | 1013.9 |
| 20260508082516 | 61 | 70 | 1.7 | 2.6 | 0.00 | 0.00 | 0.00 | 69 | 1014.0 |
| 20260508082014 | 61 | 199 | 2.6 | 2.6 | 0.00 | 0.00 | 0.00 | 69 | 1013.8 |
| 20260508081512 | 61 | 184 | 0.9 | 6.1 | 0.00 | 0.00 | 0.00 | 68 | 1014.0 |
| 20260508081007 | 61 | 154 | 1.7 | 2.6 | 0.00 | 0.00 | 0.00 | 68 | 1014.1 |
| 20260508080506 | 61 | 187 | 0.9 | 6.1 | 0.00 | 0.00 | 0.00 | 68 | 1014.0 |
| 20260508080002 | 60 | 44 | 0.9 | 2.6 | 0.00 | 0.00 | 0.00 | 68 | 1014.0 |
| 20260508075459 | 61 | 269 | 1.7 | 2.6 | 0.00 | 0.00 | 0.00 | 68 | 1014.1 |
| 20260508074957 | 61 | 346 | 0.9 | 2.6 | 0.00 | 0.00 | 0.00 | 68 | 1014.3 |
| 20260508074454 | 61 | 266 | 2.6 | 2.6 | 0.00 | 0.00 | 0.00 | 67 | 1014.3 |
| 20260508073951 | 61 | 270 | 1.7 | 2.6 | 0.00 | 0.00 | 0.00 | 67 | 1014.2 |